EPSILON R/B (43939 NORAD) Tracking and Keplerian Element Data

This shows tracking and keplerian element data for the satellite.

Feedback or suggestion? Click here.




ElementValue
Catalog43939
NameEPSILON R/B
Epoch Orbit455
Epoch Day47.80269669
Epoch Year2019
RAAN109.1294
Inclination97.1539
Eccentricity0.0347295
Argument of Perigee42.6629
Mean Anonmoly89.2221
Mean Motion15.36611931
Decay Rate0.00136784
L11 43939U 19003H 19047.80269669 .00136784 17394-5 40463-3 0 9996
L22 43939 97.1539 109.1294 0347295 42.6629 89.2221 15.36611931 4553



Live tracking and technical data element details for EPSILON R/B (NORAD 43939). EPSILON R/B can be tracked NOW for your location showing map with azimuth and elevation plus other details from your city location.







IsCatalogInMostPopularTable: catalog: 43939, numindb: 462
Update: records affected: 1



GetName: 43939 EPSILON R/B

Hit Count: updated at: Thu, 22 May 2025 04:08:03 GMT